When you browse on this site, cookies collect data to enhance your experience and personalize the content and advertising you see.
Visit our Privacy Policy to learn more. By continuing to use the site, you agree to this use of cookies and data.
EN

Hourly Weather Pechera

Today, 11 July, Saturday

Time Temperature Precipitation Wind Pressure Humidity
00:00 +19°C° 0 mm 3 mps 742 mmHg 75%
01:00 +19°C° 0 mm 3 mps 742 mmHg 76%
02:00 +18°C° 0 mm 3 mps 742 mmHg 77%
03:00 +18°C° 0 mm 3 mps 742 mmHg 77%
04:00 +18°C° 0 mm 3 mps 742 mmHg 76%
05:00 +17°C° 0 mm 3 mps 742 mmHg 76%
06:00 +19°C° 0 mm 3 mps 742 mmHg 72%
07:00 +21°C° 0 mm 3 mps 742 mmHg 67%
08:00 +23°C° 0 mm 4 mps 742 mmHg 63%
09:00 +25°C° 0 mm 4 mps 743 mmHg 60%
10:00 +27°C° 0 mm 4 mps 743 mmHg 56%
11:00 +28°C° 0 mm 4 mps 743 mmHg 53%
12:00 +28°C° 0 mm 4 mps 742 mmHg 52%
13:00 +29°C° 0 mm 4 mps 742 mmHg 52%
14:00 +29°C° 0 mm 4 mps 742 mmHg 51%
15:00 +29°C° 0 mm 4 mps 742 mmHg 53%
16:00 +28°C° 0 mm 4 mps 741 mmHg 55%
17:00 +28°C° 0 mm 3 mps 741 mmHg 57%
18:00 +27°C° 0 mm 3 mps 741 mmHg 62%
19:00 +25°C° 0 mm 3 mps 740 mmHg 67%
20:00 +23°C° 0 mm 2 mps 740 mmHg 71%
21:00 +21°C° 0 mm 2 mps 740 mmHg 71%
22:00 +21°C° 0 mm 2 mps 740 mmHg 71%
23:00 +20°C° 0 mm 2 mps 740 mmHg 70%

Tomorrow, 12 July, Sunday

Time Temperature Precipitation Wind Pressure Humidity
00:00 +20°C° 0 mm 2 mps 740 mmHg 72%
01:00 +19°C° 0 mm 2 mps 740 mmHg 73%
02:00 +19°C° 0 mm 2 mps 740 mmHg 75%
03:00 +18°C° 0 mm 2 mps 739 mmHg 76%
04:00 +18°C° 0 mm 2 mps 739 mmHg 77%
05:00 +18°C° 0 mm 2 mps 739 mmHg 79%
06:00 +20°C° 0 mm 2 mps 739 mmHg 74%
07:00 +23°C° 0 mm 2 mps 739 mmHg 69%
08:00 +25°C° 0 mm 2 mps 740 mmHg 64%
09:00 +26°C° 0 mm 2 mps 739 mmHg 60%
10:00 +27°C° 0 mm 2 mps 739 mmHg 56%
11:00 +28°C° 0 mm 2 mps 739 mmHg 53%
12:00 +28°C° 0 mm 2 mps 739 mmHg 53%
13:00 +28°C° 0 mm 2 mps 739 mmHg 54%
14:00 +28°C° 0 mm 2 mps 739 mmHg 54%
15:00 +27°C° 0.7 mm 4 mps 739 mmHg 63%
16:00 +25°C° 0.7 mm 5 mps 738 mmHg 73%
17:00 +22°C° 0.7 mm 7 mps 738 mmHg 82%
18:00 +20°C° 0.2 mm 7 mps 739 mmHg 85%
19:00 +16°C° 0.2 mm 7 mps 739 mmHg 89%
20:00 +14°C° 0.2 mm 7 mps 739 mmHg 92%
21:00 +14°C° 0.3 mm 7 mps 739 mmHg 92%
22:00 +12°C° 0.3 mm 7 mps 740 mmHg 92%
23:00 +11°C° 0.3 mm 7 mps 740 mmHg 93%

Day after tomorrow, 13 July, Monday

Time Temperature Precipitation Wind Pressure Humidity
00:00 +11°C° 0 mm 7 mps 740 mmHg 92%
01:00 +11°C° 0 mm 7 mps 740 mmHg 91%
02:00 +11°C° 0 mm 7 mps 740 mmHg 90%
03:00 +11°C° 0.2 mm 7 mps 740 mmHg 89%
04:00 +10°C° 0.2 mm 7 mps 740 mmHg 88%
05:00 +10°C° 0.2 mm 8 mps 740 mmHg 88%
06:00 +11°C° 0 mm 7 mps 740 mmHg 86%
07:00 +11°C° 0 mm 7 mps 740 mmHg 84%
08:00 +11°C° 0 mm 7 mps 740 mmHg 82%
09:00 +12°C° 0 mm 7 mps 740 mmHg 79%
10:00 +14°C° 0 mm 7 mps 740 mmHg 75%
11:00 +15°C° 0 mm 7 mps 740 mmHg 72%
12:00 +16°C° 0 mm 7 mps 740 mmHg 69%
13:00 +17°C° 0 mm 7 mps 740 mmHg 66%
14:00 +20°C° 0 mm 7 mps 740 mmHg 63%
15:00 +20°C° 0.1 mm 7 mps 740 mmHg 62%
16:00 +20°C° 0.1 mm 6 mps 739 mmHg 62%
17:00 +19°C° 0.1 mm 6 mps 739 mmHg 62%
18:00 +17°C° 0 mm 6 mps 739 mmHg 67%
19:00 +16°C° 0 mm 5 mps 739 mmHg 73%
20:00 +14°C° 0 mm 4 mps 739 mmHg 78%
21:00 +14°C° 0 mm 4 mps 739 mmHg 81%
22:00 +13°C° 0 mm 4 mps 739 mmHg 84%
23:00 +12°C° 0 mm 4 mps 739 mmHg 87%

14 July, Tuesday

Time Temperature Precipitation Wind Pressure Humidity
00:00 +11°C° 0 mm 4 mps 739 mmHg 89%
01:00 +11°C° 0 mm 4 mps 739 mmHg 91%
02:00 +10°C° 0 mm 4 mps 739 mmHg 92%
03:00 +10°C° 0 mm 4 mps 739 mmHg 92%
04:00 +10°C° 0 mm 4 mps 739 mmHg 91%
05:00 +10°C° 0 mm 4 mps 739 mmHg 91%
06:00 +12°C° 0 mm 5 mps 739 mmHg 85%
07:00 +14°C° 0 mm 5 mps 740 mmHg 79%
08:00 +15°C° 0 mm 5 mps 740 mmHg 73%
09:00 +17°C° 0 mm 5 mps 740 mmHg 68%
10:00 +19°C° 0 mm 5 mps 740 mmHg 63%
11:00 +20°C° 0 mm 5 mps 740 mmHg 59%
12:00 +21°C° 0 mm 5 mps 740 mmHg 57%
13:00 +21°C° 0 mm 5 mps 740 mmHg 56%
14:00 +22°C° 0 mm 5 mps 740 mmHg 55%
15:00 +22°C° 0 mm 5 mps 740 mmHg 56%
16:00 +22°C° 0 mm 5 mps 739 mmHg 57%
17:00 +21°C° 0 mm 4 mps 739 mmHg 58%
18:00 +20°C° 0 mm 4 mps 739 mmHg 64%
19:00 +18°C° 0 mm 3 mps 740 mmHg 69%
20:00 +16°C° 0 mm 2 mps 740 mmHg 75%
21:00 +16°C° 0 mm 2 mps 740 mmHg 79%
22:00 +15°C° 0 mm 2 mps 740 mmHg 84%
23:00 +13°C° 0 mm 3 mps 740 mmHg 88%

15 July, Wednesday

Time Temperature Precipitation Wind Pressure Humidity
00:00 +14°C° 0 mm 2 mps 740 mmHg 89%
01:00 +14°C° 0 mm 2 mps 740 mmHg 91%
02:00 +13°C° 0 mm 2 mps 740 mmHg 92%
03:00 +13°C° 0 mm 2 mps 740 mmHg 93%
04:00 +13°C° 0 mm 2 mps 740 mmHg 93%
05:00 +13°C° 0 mm 2 mps 740 mmHg 94%
06:00 +15°C° 0 mm 2 mps 741 mmHg 87%
07:00 +17°C° 0 mm 2 mps 741 mmHg 81%
08:00 +19°C° 0 mm 3 mps 741 mmHg 74%
09:00 +20°C° 0 mm 2 mps 741 mmHg 68%
10:00 +21°C° 0 mm 2 mps 741 mmHg 62%
11:00 +23°C° 0 mm 2 mps 741 mmHg 56%
12:00 +24°C° 0 mm 2 mps 741 mmHg 54%
13:00 +24°C° 0 mm 3 mps 741 mmHg 53%
14:00 +24°C° 0 mm 3 mps 741 mmHg 51%
15:00 +24°C° 0 mm 2 mps 741 mmHg 53%
16:00 +24°C° 0 mm 2 mps 740 mmHg 55%
17:00 +24°C° 0 mm 2 mps 740 mmHg 57%
18:00 +21°C° 0 mm 2 mps 740 mmHg 62%
19:00 +20°C° 0 mm 2 mps 740 mmHg 67%
20:00 +19°C° 0 mm 1 mps 740 mmHg 72%
21:00 +18°C° 0 mm 1 mps 740 mmHg 75%
22:00 +16°C° 0 mm 1 mps 740 mmHg 78%
23:00 +14°C° 0 mm 0 mps 740 mmHg 81%

16 July, Thursday

Time Temperature Precipitation Wind Pressure Humidity
00:00 +14°C° 0 mm 0 mps 740 mmHg 82%
01:00 +14°C° 0 mm 0 mps 740 mmHg 82%
02:00 +14°C° 0 mm 0 mps 740 mmHg 83%
03:00 +14°C° 0 mm 0 mps 740 mmHg 83%
04:00 +14°C° 0 mm 0 mps 740 mmHg 82%
05:00 +14°C° 0 mm 0 mps 739 mmHg 82%
06:00 +16°C° 0 mm 0 mps 740 mmHg 76%
07:00 +20°C° 0 mm 1 mps 740 mmHg 71%
08:00 +22°C° 0 mm 1 mps 740 mmHg 65%
09:00 +23°C° 0 mm 1 mps 740 mmHg 61%
10:00 +24°C° 0 mm 1 mps 740 mmHg 56%
11:00 +25°C° 0 mm 2 mps 739 mmHg 52%
12:00 +25°C° 0 mm 2 mps 739 mmHg 52%
13:00 +26°C° 0 mm 2 mps 739 mmHg 52%
14:00 +26°C° 0 mm 2 mps 739 mmHg 52%
15:00 +26°C° 0.1 mm 2 mps 738 mmHg 53%
16:00 +26°C° 0.1 mm 2 mps 738 mmHg 55%
17:00 +26°C° 0.1 mm 2 mps 738 mmHg 57%
18:00 +24°C° 0.1 mm 2 mps 738 mmHg 62%
19:00 +23°C° 0.1 mm 2 mps 737 mmHg 68%
20:00 +21°C° 0.1 mm 1 mps 737 mmHg 73%
21:00 +20°C° 0 mm 1 mps 737 mmHg 76%
22:00 +19°C° 0 mm 1 mps 737 mmHg 79%
23:00 +19°C° 0 mm 1 mps 737 mmHg 81%
Show more